EN

Hourly Weather Dziecioly

Today, 31 October, Saturday

Time Temperature Precipitation Wind Pressure Humidity
00:00 +10°C° 0.2 mm 1 mps 750 mmHg 95%
01:00 +9°C° 0 mm 2 mps 750 mmHg 96%
02:00 +9°C° 0.1 mm 2 mps 750 mmHg 95%
03:00 +9°C° 0.1 mm 2 mps 751 mmHg 94%
04:00 +8°C° 0.1 mm 2 mps 751 mmHg 94%
05:00 +8°C° 0.1 mm 2 mps 752 mmHg 93%
06:00 +8°C° 0.1 mm 2 mps 752 mmHg 92%
07:00 +8°C° 0 mm 2 mps 753 mmHg 89%
08:00 +8°C° 0 mm 2 mps 753 mmHg 84%
09:00 +9°C° 0 mm 2 mps 754 mmHg 79%
10:00 +10°C° 0 mm 2 mps 754 mmHg 73%
11:00 +10°C° 0 mm 2 mps 754 mmHg 69%
12:00 +12°C° 0 mm 2 mps 754 mmHg 64%
13:00 +13°C° 0 mm 2 mps 754 mmHg 59%
14:00 +12°C° 0 mm 1 mps 754 mmHg 62%
15:00 +12°C° 0 mm 1 mps 754 mmHg 64%
16:00 +11°C° 0 mm 1 mps 754 mmHg 66%
17:00 +10°C° 0 mm 1 mps 754 mmHg 69%
18:00 +9°C° 0 mm 2 mps 754 mmHg 72%
19:00 +8°C° 0 mm 2 mps 754 mmHg 74%
20:00 +8°C° 0 mm 2 mps 754 mmHg 76%
21:00 +7°C° 0 mm 3 mps 754 mmHg 77%
22:00 +7°C° 0 mm 3 mps 754 mmHg 79%
23:00 +7°C° 0 mm 3 mps 754 mmHg 81%

Tomorrow, 1 November, Sunday

Time Temperature Precipitation Wind Pressure Humidity
00:00 +5°C° 0 mm 3 mps 754 mmHg 82%
01:00 +5°C° 0 mm 3 mps 754 mmHg 84%
02:00 +5°C° 0 mm 3 mps 753 mmHg 83%
03:00 +5°C° 0 mm 4 mps 753 mmHg 82%
04:00 +5°C° 0 mm 4 mps 752 mmHg 81%
05:00 +5°C° 0 mm 4 mps 752 mmHg 80%
06:00 +5°C° 0 mm 4 mps 752 mmHg 80%
07:00 +4°C° 0 mm 4 mps 752 mmHg 80%
08:00 +6°C° 0 mm 4 mps 752 mmHg 79%
09:00 +8°C° 0 mm 4 mps 751 mmHg 79%
10:00 +10°C° 0 mm 4 mps 751 mmHg 78%
11:00 +11°C° 0 mm 4 mps 751 mmHg 76%
12:00 +12°C° 0 mm 4 mps 750 mmHg 74%
13:00 +14°C° 0 mm 4 mps 750 mmHg 72%
14:00 +13°C° 0 mm 4 mps 749 mmHg 76%
15:00 +13°C° 0 mm 4 mps 749 mmHg 79%
16:00 +12°C° 0 mm 3 mps 748 mmHg 82%
17:00 +12°C° 0.3 mm 4 mps 748 mmHg 85%
18:00 +12°C° 0.3 mm 4 mps 748 mmHg 87%
19:00 +10°C° 0.3 mm 5 mps 748 mmHg 90%
20:00 +10°C° 0.8 mm 5 mps 747 mmHg 91%
21:00 +10°C° 0.8 mm 5 mps 747 mmHg 92%
22:00 +10°C° 0.8 mm 5 mps 747 mmHg 92%
23:00 +10°C° 0.5 mm 5 mps 747 mmHg 93%

Day after tomorrow, 2 November, Monday

Time Temperature Precipitation Wind Pressure Humidity
00:00 +10°C° 0.5 mm 5 mps 746 mmHg 93%
01:00 +10°C° 0.5 mm 5 mps 746 mmHg 93%
02:00 +11°C° 0.3 mm 4 mps 746 mmHg 93%
03:00 +12°C° 0.3 mm 4 mps 746 mmHg 93%
04:00 +12°C° 0.3 mm 4 mps 746 mmHg 93%
05:00 +12°C° 0 mm 4 mps 746 mmHg 93%
06:00 +12°C° 0 mm 4 mps 747 mmHg 94%
07:00 +12°C° 0 mm 4 mps 747 mmHg 94%
08:00 +13°C° 0 mm 4 mps 747 mmHg 94%
09:00 +13°C° 0 mm 3 mps 747 mmHg 94%
10:00 +13°C° 0 mm 3 mps 748 mmHg 93%
11:00 +13°C° 0.2 mm 3 mps 748 mmHg 93%
12:00 +13°C° 0.2 mm 3 mps 748 mmHg 93%
13:00 +14°C° 0.2 mm 4 mps 748 mmHg 93%
14:00 +14°C° 0.1 mm 3 mps 748 mmHg 94%
15:00 +13°C° 0.1 mm 3 mps 748 mmHg 94%
16:00 +13°C° 0.1 mm 3 mps 748 mmHg 95%
17:00 +13°C° 0 mm 3 mps 748 mmHg 95%
18:00 +13°C° 0 mm 3 mps 748 mmHg 95%
19:00 +13°C° 0 mm 3 mps 748 mmHg 95%
20:00 +13°C° 0 mm 3 mps 749 mmHg 94%
21:00 +13°C° 0 mm 3 mps 749 mmHg 93%
22:00 +14°C° 0 mm 3 mps 749 mmHg 92%
23:00 +14°C° 0 mm 3 mps 749 mmHg 92%

3 November, Tuesday

Time Temperature Precipitation Wind Pressure Humidity
00:00 +13°C° 0 mm 3 mps 749 mmHg 92%
01:00 +13°C° 0 mm 3 mps 749 mmHg 92%
02:00 +13°C° 0 mm 3 mps 749 mmHg 91%
03:00 +14°C° 0 mm 3 mps 749 mmHg 90%
04:00 +14°C° 0 mm 3 mps 749 mmHg 89%
05:00 +14°C° 0 mm 3 mps 750 mmHg 90%
06:00 +14°C° 0 mm 3 mps 750 mmHg 91%
07:00 +13°C° 0 mm 3 mps 750 mmHg 92%
08:00 +14°C° 0 mm 4 mps 751 mmHg 89%
09:00 +14°C° 0 mm 4 mps 752 mmHg 87%
10:00 +14°C° 0 mm 5 mps 752 mmHg 85%
11:00 +14°C° 0 mm 5 mps 753 mmHg 78%
12:00 +14°C° 0 mm 5 mps 753 mmHg 71%
13:00 +14°C° 0 mm 5 mps 753 mmHg 65%
14:00 +14°C° 0 mm 4 mps 754 mmHg 66%
15:00 +13°C° 0 mm 3 mps 754 mmHg 68%
16:00 +12°C° 0 mm 3 mps 754 mmHg 70%
17:00 +12°C° 0 mm 3 mps 755 mmHg 72%
18:00 +11°C° 0 mm 3 mps 755 mmHg 73%
19:00 +10°C° 0 mm 3 mps 756 mmHg 75%
20:00 +10°C° 0 mm 3 mps 756 mmHg 76%
21:00 +10°C° 0 mm 2 mps 756 mmHg 76%
22:00 +9°C° 0 mm 2 mps 757 mmHg 77%
23:00 +9°C° 0 mm 2 mps 757 mmHg 77%

4 November, Wednesday

Time Temperature Precipitation Wind Pressure Humidity
00:00 +9°C° 0 mm 2 mps 757 mmHg 77%
01:00 +10°C° 0 mm 1 mps 757 mmHg 77%
02:00 +9°C° 0 mm 2 mps 757 mmHg 77%
03:00 +9°C° 0 mm 2 mps 757 mmHg 77%
04:00 +9°C° 0 mm 2 mps 757 mmHg 78%
05:00 +8°C° 0 mm 2 mps 758 mmHg 79%
06:00 +8°C° 0 mm 2 mps 758 mmHg 80%
07:00 +8°C° 0 mm 2 mps 758 mmHg 81%
08:00 +8°C° 0 mm 2 mps 758 mmHg 77%
09:00 +9°C° 0 mm 2 mps 758 mmHg 73%
10:00 +10°C° 0 mm 2 mps 759 mmHg 69%
11:00 +10°C° 0 mm 2 mps 759 mmHg 66%
12:00 +11°C° 0 mm 3 mps 759 mmHg 63%
13:00 +11°C° 0 mm 3 mps 759 mmHg 60%
14:00 +10°C° 0 mm 2 mps 759 mmHg 62%
15:00 +10°C° 0 mm 2 mps 759 mmHg 65%
16:00 +9°C° 0 mm 2 mps 759 mmHg 68%
17:00 +10°C° 0 mm 1 mps 759 mmHg 70%
18:00 +9°C° 0 mm 1 mps 760 mmHg 72%
19:00 +8°C° 0 mm 1 mps 760 mmHg 73%
20:00 +8°C° 0 mm 1 mps 761 mmHg 75%
21:00 +8°C° 0 mm 1 mps 761 mmHg 76%
22:00 +7°C° 0 mm 1 mps 761 mmHg 77%
23:00 +7°C° 0 mm 1 mps 761 mmHg 78%

5 November, Thursday

Time Temperature Precipitation Wind Pressure Humidity
00:00 +7°C° 0 mm 1 mps 761 mmHg 79%
01:00 +7°C° 0 mm 1 mps 762 mmHg 80%
02:00 +6°C° 0 mm 1 mps 762 mmHg 82%
03:00 +6°C° 0 mm 1 mps 762 mmHg 84%
04:00 +6°C° 0 mm 1 mps 762 mmHg 85%
05:00 +5°C° 0 mm 1 mps 762 mmHg 86%
06:00 +5°C° 0 mm 1 mps 762 mmHg 88%
07:00 +5°C° 0 mm 1 mps 763 mmHg 89%
08:00 +6°C° 0 mm 1 mps 763 mmHg 84%
09:00 +6°C° 0 mm 2 mps 763 mmHg 79%
10:00 +7°C° 0 mm 2 mps 763 mmHg 73%
11:00 +8°C° 0 mm 2 mps 763 mmHg 70%
12:00 +8°C° 0 mm 2 mps 763 mmHg 67%
13:00 +9°C° 0 mm 3 mps 763 mmHg 63%
14:00 +8°C° 0 mm 2 mps 763 mmHg 68%
15:00 +8°C° 0 mm 2 mps 763 mmHg 72%
16:00 +7°C° 0 mm 2 mps 763 mmHg 77%
17:00 +6°C° 0 mm 2 mps 764 mmHg 81%
18:00 +6°C° 0 mm 2 mps 764 mmHg 85%
19:00 +5°C° 0 mm 2 mps 764 mmHg 89%
20:00 +5°C° 0 mm 2 mps 764 mmHg 90%
21:00 +5°C° 0 mm 2 mps 765 mmHg 92%
22:00 +4°C° 0 mm 2 mps 765 mmHg 93%
23:00 +4°C° 0 mm 2 mps 765 mmHg 94%
Show more